• Em Portugal
  • Lista de países
  • Para 7 dias
  • Temperatura da água
  • Mapas de satélite
  • Mapa do tempo
  • Widgets de tempo
  • user-avatar
    Iniciar Sessão

    Previsão horária em Dipayal

    Hoje, 20 Setembro, Quinta-feira

    Tempo Temperatura Precipitação Vento Pressão Humidade
    00:00 +25°C° 0 mm 2 m/s 702 mmHg 71%
    01:00 +25°C° 0 mm 2 m/s 702 mmHg 68%
    02:00 +25°C° 0 mm 2 m/s 702 mmHg 65%
    03:00 +24°C° 0 mm 2 m/s 702 mmHg 63%
    04:00 +24°C° 0 mm 2 m/s 702 mmHg 60%
    05:00 +24°C° 0 mm 2 m/s 702 mmHg 57%
    06:00 +27°C° 0 mm 1 m/s 702 mmHg 52%
    07:00 +29°C° 0 mm 1 m/s 702 mmHg 48%
    08:00 +29°C° 0 mm 0 m/s 703 mmHg 43%
    09:00 +33°C° 0 mm 1 m/s 703 mmHg 41%
    10:00 +34°C° 0 mm 1 m/s 703 mmHg 39%
    11:00 +36°C° 0 mm 2 m/s 703 mmHg 37%
    12:00 +36°C° 0 mm 2 m/s 702 mmHg 39%
    13:00 +36°C° 0 mm 2 m/s 702 mmHg 41%
    14:00 +36°C° 0 mm 2 m/s 701 mmHg 43%
    15:00 +34°C° 0 mm 2 m/s 701 mmHg 52%
    16:00 +32°C° 0 mm 2 m/s 701 mmHg 61%
    17:00 +30°C° 0 mm 1 m/s 701 mmHg 71%
    18:00 +29°C° 0.7 mm 1 m/s 702 mmHg 75%
    19:00 +27°C° 0.7 mm 1 m/s 702 mmHg 80%
    20:00 +26°C° 0.7 mm 1 m/s 703 mmHg 85%
    21:00 +25°C° 0.3 mm 1 m/s 703 mmHg 84%
    22:00 +25°C° 0.3 mm 1 m/s 703 mmHg 83%
    23:00 +25°C° 0.3 mm 1 m/s 703 mmHg 83%

    Amanhã, 21 Setembro, Sexta-feira

    Tempo Temperatura Precipitação Vento Pressão Humidade
    00:00 +24°C° 0.1 mm 1 m/s 703 mmHg 82%
    01:00 +24°C° 0.1 mm 1 m/s 703 mmHg 82%
    02:00 +24°C° 0.1 mm 1 m/s 702 mmHg 81%
    03:00 +24°C° 0 mm 1 m/s 702 mmHg 80%
    04:00 +24°C° 0 mm 1 m/s 702 mmHg 79%
    05:00 +23°C° 0 mm 1 m/s 702 mmHg 78%
    06:00 +26°C° 0 mm 1 m/s 703 mmHg 72%
    07:00 +28°C° 0 mm 1 m/s 703 mmHg 67%
    08:00 +30°C° 0 mm 1 m/s 704 mmHg 61%
    09:00 +31°C° 0 mm 1 m/s 704 mmHg 59%
    10:00 +32°C° 0 mm 1 m/s 704 mmHg 56%
    11:00 +34°C° 0 mm 2 m/s 704 mmHg 54%
    12:00 +34°C° 0.2 mm 2 m/s 703 mmHg 57%
    13:00 +32°C° 0.2 mm 2 m/s 703 mmHg 59%
    14:00 +32°C° 0.2 mm 2 m/s 702 mmHg 62%
    15:00 +31°C° 0.2 mm 2 m/s 702 mmHg 71%
    16:00 +29°C° 0.2 mm 1 m/s 702 mmHg 79%
    17:00 +28°C° 0.2 mm 1 m/s 702 mmHg 88%
    18:00 +27°C° 0.4 mm 1 m/s 702 mmHg 90%
    19:00 +27°C° 0.4 mm 1 m/s 703 mmHg 92%
    20:00 +24°C° 0.4 mm 0 m/s 703 mmHg 94%
    21:00 +24°C° 0.5 mm 0 m/s 704 mmHg 93%
    22:00 +26°C° 0.5 mm 1 m/s 704 mmHg 92%
    23:00 +26°C° 0.5 mm 1 m/s 704 mmHg 91%

    Depois de amanhã, 22 Setembro, Sábado

    Tempo Temperatura Precipitação Vento Pressão Humidade
    00:00 +26°C° 0.3 mm 1 m/s 704 mmHg 90%
    01:00 +26°C° 0.3 mm 1 m/s 703 mmHg 90%
    02:00 +25°C° 0.3 mm 1 m/s 703 mmHg 89%
    03:00 +25°C° 0.3 mm 1 m/s 703 mmHg 89%
    04:00 +25°C° 0.3 mm 1 m/s 703 mmHg 88%
    05:00 +25°C° 0.3 mm 1 m/s 703 mmHg 88%
    06:00 +26°C° 0.2 mm 1 m/s 703 mmHg 85%
    07:00 +25°C° 0.2 mm 0 m/s 704 mmHg 82%
    08:00 +26°C° 0.2 mm 0 m/s 705 mmHg 79%
    09:00 +28°C° 0.6 mm 1 m/s 704 mmHg 77%
    10:00 +29°C° 0.6 mm 1 m/s 704 mmHg 75%
    11:00 +29°C° 0.6 mm 1 m/s 704 mmHg 73%
    12:00 +30°C° 0.6 mm 1 m/s 704 mmHg 73%
    13:00 +30°C° 0.6 mm 1 m/s 703 mmHg 74%
    14:00 +30°C° 0.6 mm 1 m/s 703 mmHg 74%
    15:00 +29°C° 0.7 mm 1 m/s 703 mmHg 78%
    16:00 +28°C° 0.7 mm 1 m/s 703 mmHg 82%
    17:00 +26°C° 0.7 mm 0 m/s 702 mmHg 86%
    18:00 +25°C° 0.5 mm 0 m/s 703 mmHg 86%
    19:00 +26°C° 0.5 mm 1 m/s 703 mmHg 87%
    20:00 +26°C° 0.5 mm 1 m/s 704 mmHg 88%
    21:00 +25°C° 0.2 mm 1 m/s 704 mmHg 87%
    22:00 +25°C° 0.2 mm 1 m/s 704 mmHg 86%
    23:00 +25°C° 0.2 mm 1 m/s 704 mmHg 86%

    23 Setembro, Domingo

    Tempo Temperatura Precipitação Vento Pressão Humidade
    00:00 +25°C° 0.2 mm 1 m/s 704 mmHg 85%
    01:00 +24°C° 0.2 mm 1 m/s 703 mmHg 84%
    02:00 +24°C° 0.2 mm 1 m/s 703 mmHg 84%
    03:00 +24°C° 0.1 mm 1 m/s 703 mmHg 83%
    04:00 +24°C° 0.1 mm 1 m/s 703 mmHg 82%
    05:00 +24°C° 0.1 mm 1 m/s 703 mmHg 82%
    06:00 +26°C° 0 mm 1 m/s 704 mmHg 76%
    07:00 +28°C° 0 mm 1 m/s 704 mmHg 70%
    08:00 +28°C° 0 mm 0 m/s 705 mmHg 64%
    09:00 +31°C° 0 mm 1 m/s 705 mmHg 60%
    10:00 +32°C° 0 mm 1 m/s 705 mmHg 56%
    11:00 +35°C° 0 mm 2 m/s 705 mmHg 53%
    12:00 +34°C° 0.2 mm 2 m/s 704 mmHg 55%
    13:00 +34°C° 0.2 mm 2 m/s 703 mmHg 57%
    14:00 +34°C° 0.2 mm 2 m/s 703 mmHg 59%
    15:00 +32°C° 1 mm 2 m/s 703 mmHg 67%
    16:00 +30°C° 1 mm 1 m/s 703 mmHg 75%
    17:00 +29°C° 1 mm 1 m/s 702 mmHg 83%
    18:00 +28°C° 0.8 mm 1 m/s 703 mmHg 85%
    19:00 +27°C° 0.8 mm 1 m/s 703 mmHg 88%
    20:00 +26°C° 0.8 mm 1 m/s 704 mmHg 91%
    21:00 +25°C° 0.6 mm 1 m/s 704 mmHg 90%
    22:00 +25°C° 0.6 mm 1 m/s 704 mmHg 89%
    23:00 +25°C° 0.6 mm 1 m/s 704 mmHg 88%

    24 Setembro, Segunda-feira

    Tempo Temperatura Precipitação Vento Pressão Humidade
    00:00 +25°C° 0.4 mm 1 m/s 703 mmHg 88%
    01:00 +24°C° 0.4 mm 1 m/s 703 mmHg 87%
    02:00 +24°C° 0.4 mm 1 m/s 702 mmHg 87%
    03:00 +24°C° 0.2 mm 1 m/s 702 mmHg 86%
    04:00 +24°C° 0.2 mm 1 m/s 702 mmHg 86%
    05:00 +24°C° 0.2 mm 1 m/s 702 mmHg 85%
    06:00 +26°C° 0 mm 1 m/s 703 mmHg 80%
    07:00 +28°C° 0 mm 1 m/s 703 mmHg 74%
    08:00 +28°C° 0 mm 0 m/s 704 mmHg 69%
    09:00 +31°C° 0 mm 1 m/s 704 mmHg 64%
    10:00 +32°C° 0 mm 1 m/s 704 mmHg 60%
    11:00 +34°C° 0 mm 2 m/s 703 mmHg 55%
    12:00 +34°C° 0.5 mm 2 m/s 703 mmHg 58%
    13:00 +34°C° 0.5 mm 2 m/s 702 mmHg 61%
    14:00 +32°C° 0.5 mm 2 m/s 701 mmHg 63%
    15:00 +31°C° 0.6 mm 2 m/s 701 mmHg 70%
    16:00 +30°C° 0.6 mm 2 m/s 701 mmHg 77%
    17:00 +29°C° 0.6 mm 1 m/s 701 mmHg 84%
    18:00 +28°C° 0.5 mm 1 m/s 702 mmHg 87%
    19:00 +27°C° 0.5 mm 1 m/s 702 mmHg 90%
    20:00 +23°C° 0.5 mm 0 m/s 702 mmHg 94%
    21:00 +25°C° 0.6 mm 1 m/s 702 mmHg 93%
    22:00 +25°C° 0.6 mm 1 m/s 702 mmHg 93%
    23:00 +25°C° 0.6 mm 1 m/s 702 mmHg 92%

    25 Setembro, Terça-feira

    Tempo Temperatura Precipitação Vento Pressão Humidade
    00:00 +25°C° 0.2 mm 1 m/s 702 mmHg 91%
    01:00 +24°C° 0.2 mm 1 m/s 701 mmHg 90%
    02:00 +24°C° 0.2 mm 1 m/s 701 mmHg 88%
    03:00 +24°C° 0.1 mm 1 m/s 701 mmHg 87%
    04:00 +24°C° 0.1 mm 1 m/s 701 mmHg 86%
    05:00 +24°C° 0.1 mm 1 m/s 701 mmHg 84%
    06:00 +26°C° 0.1 mm 1 m/s 702 mmHg 79%
    07:00 +28°C° 0.1 mm 1 m/s 702 mmHg 73%
    08:00 +28°C° 0.1 mm 0 m/s 703 mmHg 67%
    09:00 +31°C° 0.2 mm 1 m/s 703 mmHg 64%
    10:00 +32°C° 0.2 mm 1 m/s 702 mmHg 61%
    11:00 +34°C° 0.2 mm 2 m/s 702 mmHg 59%
    12:00 +32°C° 0.8 mm 2 m/s 702 mmHg 62%
    13:00 +32°C° 0.8 mm 2 m/s 701 mmHg 66%
    14:00 +32°C° 0.8 mm 2 m/s 700 mmHg 69%
    15:00 +30°C° 1.5 mm 2 m/s 700 mmHg 75%
    16:00 +29°C° 1.5 mm 1 m/s 700 mmHg 81%
    17:00 +28°C° 1.5 mm 1 m/s 700 mmHg 87%
    18:00 +27°C° 1 mm 1 m/s 700 mmHg 88%
    19:00 +27°C° 1 mm 1 m/s 701 mmHg 89%
    20:00 +24°C° 1 mm 0 m/s 701 mmHg 91%
    21:00 +26°C° 0.4 mm 1 m/s 701 mmHg 90%
    22:00 +25°C° 0.4 mm 1 m/s 701 mmHg 90%
    23:00 +25°C° 0.4 mm 1 m/s 701 mmHg 90%
    Mostrar mais